P/2020 V3 ( PanSTARRS )

Japanese version
Home page
Updated on December 28, 2022

---------------------------------------------------------------------

* Profile

Discovery Date November 10, 2020
Magnitude 20.6 mag
Discoverer Pan-STARRS 1 telescope (Haleakala)

* Pictures

* Orbital Elements

Epoch 2023 Feb. 25.0 TT = JDT 2460000.5
T 2021 Feb. 8.99343 TT                                  Rudenko
q   6.2307230            (2000.0)            P               Q
n   0.04060399     Peri.  249.34855     +0.06523293     -0.99031729
a   8.3834658      Node   198.25183     +0.99731301     +0.06880579
e   0.2567843      Incl.   23.03308     +0.03333802     -0.12057124
P  24.3
>From 110 observations 2020 Nov. 10-2022 Dec. 1, mean residual 0".4.

* Magnitudes Graph

        m1 = 8.0 + 5 log d + 10.0 log r

---------------------------------------------------------------------

The orbital elements are published on M.P.E.C. 2022-X67.
The magnitudes graphs are made with Comet for Windows.

---------------------------------------------------------------------

Copyright(C) Seiichi Yoshida (comet@aerith.net). All rights reserved.